FICHTELBE Weather Reports


time (UTC)temp
F
wind
direction
speed
knots
gust
knots
rain 1hr
in
rain 24hr
in
rain mn
in
humidity
%
barometer
mb
20260507061639 43 270 7.8 0.0 0.00 0.00 0.00 99
20260507051639 43 280 8.7 0.0 0.00 0.00 0.00 93
20260507041841 43 280 10.4 0.0 0.00 0.00 0.00 93
20260507031639 43 270 7.0 0.0 0.00 0.00 0.00 99
20260507021637 43 260 11.3 0.0 0.00 0.00 0.00 99
20260507011738 45 260 11.3 0.0 0.00 0.00 0.00 93
20260507001639 45 250 14.8 0.0 0.00 0.00 0.00 93
20260506231639 45 240 10.4 0.0 0.00 0.00 0.00 99
20260506221838 46 270 7.0 0.0 0.00 0.00 0.00 93
20260506211639 46 300 7.8 0.0 0.00 0.00 0.00 93
20260506201639 48 270 7.8 0.0 0.00 0.00 0.00 87
20260506191654 48 290 8.7 0.0 0.00 0.00 0.00 81
20260506181655 52 240 1.7 0.0 0.00 0.00 0.00 71
20260506171638 54 290 5.2 0.0 0.00 0.00 0.00 66
20260506161839 54 270 4.3 0.0 0.00 0.00 0.00 71
20260506151639 54 260 7.8 0.0 0.00 0.00 0.00 71
20260506141639 54 250 11.3 17.4 0.00 0.00 0.00 71
20260506131639 50 230 13.0 0.0 0.00 0.00 0.00 76
20260506121639 50 240 13.0 0.0 0.00 0.00 0.00 81
20260506111640 50 240 13.0 0.0 0.00 0.00 0.00 81
20260506101840 48 250 18.2 24.3 0.00 0.00 0.00 87
20260506091639 46 250 17.4 22.6 0.00 0.00 0.00 93
20260506081639 45 250 17.4 22.6 0.00 0.00 0.00 99
20260506071639 45 260 19.1 26.9 0.00 0.00 0.00 99